[[{"header":{"parameterUnit":"m.s-1","parameterCategory":1,"la1":30.2991,"la2":30.254,"lo1":-89.0895,"lo2":-89.0444,"dy":0.0017,"dx":0.0017,"nx":28,"ny":28,"refTime":"2023-09-30T03:00:00:Z","depth":0,"parameterNumber":2,"parameterNumberName":"U-component_of_WINDS"},"data":[0,0,0,0,0,0,0,0,0,0,0,0,0,0,0,0,0,0,0,0,0,0,0,0,0,0,0,0,0,0,0,0,0,0,0,0,0,0,0,0,0,0,0,0,0,0,0,0,0,0,0,0,0,0,0,0,0,0,-4.9252,-4.9252,0,-4.928,-4.928,-4.9281,-4.9194,-4.9192,-4.9189,-4.9186,-4.9215,-4.9218,-4.9221,0,0,0,0,0,0,0,0,0,0,0,0,0,-4.9123,-4.9126,-4.9252,-4.9252,-4.9253,-4.928,-4.928,-4.9281,-4.9195,-4.9191,-4.9188,-4.9185,-4.9214,-4.9218,-4.9221,0,0,0,0,0,0,0,0,0,0,0,0,0,-4.9168,-4.9127,-4.9252,-4.9213,-4.921,-4.928,-4.928,-4.9281,-4.9195,-4.9191,-4.9187,-4.9184,-4.9212,-4.9217,-4.9222,-4.9331,0,0,-4.9237,-4.9239,0,0,0,0,0,0,0,0,-4.9166,-4.9173,-4.9218,-4.9216,-4.9212,-4.923,-4.9245,-4.9297,-4.9196,-4.9201,-4.9186,-4.9182,-4.9223,-4.9227,-4.924,-4.9332,-4.9333,-4.9237,-4.924,-4.9242,-4.9243,0,0,0,0,0,0,0,-4.9163,-4.9171,-4.9263,-4.9219,-4.9215,-4.9194,-4.9196,-4.9255,-4.9234,-4.92,-4.9194,-4.9198,-4.922,-4.9236,-4.9241,-4.9334,-4.9237,-4.9241,-4.9244,-4.9246,-4.9517,-4.9521,0,0,0,0,0,0,-4.9165,-4.9169,-4.9262,-4.9264,-4.9179,-4.92,-4.9202,-4.9228,-4.9233,-4.923,-4.9202,-4.9194,-4.923,-4.9235,-4.9241,-4.937,-4.9242,-4.9246,-4.9249,-4.9513,-4.9518,-4.9523,0,0,0,0,0,0,-4.9162,-4.9174,-4.9261,-4.9215,-4.9224,-4.9206,-4.9236,-4.9231,-4.9246,-4.9234,-4.923,-4.9222,-4.9227,-4.9234,-4.9309,-4.937,-4.9249,-4.9253,-4.9508,-4.9515,-4.952,-4.9629,0,0,0,0,0,0,-4.9159,-4.9173,-4.9215,-4.9216,-4.9227,-4.9329,-4.924,-4.9234,-4.9255,-4.9245,-4.9252,-4.9249,-4.9224,-4.9303,-4.9314,-4.9374,-4.9257,-4.9502,-4.9511,-4.9518,-4.962,-4.9638,-4.9654,0,0,0,0,0,-4.9154,-4.9243,-4.9217,-4.9229,-4.9278,-4.9333,-4.9339,-4.9309,-4.926,-4.9301,-4.9294,-4.9249,-4.9361,-4.9311,-4.9323,-4.9386,-4.9498,-4.9508,-4.9518,-4.9612,-4.9634,-4.9653,0,0,0,0,0,0,-4.9248,-4.9243,-4.9214,-4.9306,-4.9321,-4.9318,-4.9369,-4.9333,-4.9362,-4.9352,-4.9313,-4.9316,-4.9398,-4.9399,-4.9343,-4.9492,-4.9421,-4.9434,-4.9489,-4.951,-4.9527,-4.9525,-4.9261,0,0,0,0,0,-4.928,-4.9325,-4.9317,-4.9399,-4.9408,-4.9388,-4.941,-4.9386,-4.94,-4.9405,-4.9403,-4.9418,-4.9457,-4.9483,-4.9518,-4.9619,-4.962,-4.9668,-4.9685,-4.9699,-4.9711,-4.9766,-4.9788,-4.9555,-4.9555,-4.9554,0,0,-4.9345,-4.9348,-4.9378,-4.9418,-4.9427,-4.9475,-4.9394,-4.9447,-4.9482,-4.9413,-4.9485,-4.9484,-4.9498,-4.9587,-4.9626,-4.959,-4.9775,-4.9711,-4.9723,-4.9727,-4.9778,-4.98,-4.982,-4.9561,-4.956,-4.9559,0,0,-4.9489,-4.9495,-4.9565,-4.9576,-4.959,-4.9576,-4.9593,-4.9596,-4.9593,-4.9664,-4.9614,-4.9655,-4.9722,-4.9734,-4.975,-4.99,-4.986,-4.9912,-5.0002,-5.0056,-5.0074,-5.009,-5.0145,-5.0165,-4.9923,-4.9924,-4.9924,0,-4.9569,-4.9639,-4.9605,-4.9663,-4.9682,-4.9623,-4.9694,-4.9705,-4.973,-4.9745,-4.9704,-4.9789,-4.9793,-4.9885,-4.9922,-4.9936,-4.9955,-4.9911,-5.0074,-5.009,-5.0104,-5.0157,-5.0177,-4.993,-4.9929,-4.9928,-4.9928,0,-4.9737,-4.9787,-4.9841,-4.9868,-4.9893,-4.9957,-4.9933,-4.9963,-4.9936,-4.9927,-5.0,-5.0004,-5.004,-5.0059,-5.0034,-5.0148,-5.0126,-5.0081,-5.0009,-5.0134,-5.0182,-5.0202,-4.9939,-4.9937,-4.9935,-4.9933,0,0,-4.9942,-4.9949,-4.997,-4.9982,-4.9994,-5.0031,-5.0092,-5.0128,-5.0155,-5.0173,-5.0225,-5.0283,-5.0242,-5.0259,-5.0234,-5.0282,-5.0403,-5.0231,-5.023,-5.0264,-5.0531,-5.0566,-5.059,-5.0376,-5.0379,-5.0382,-5.053,0,-5.0085,-5.0191,-5.0163,-5.0268,-5.0314,-5.0258,-5.0312,-5.0325,-5.0318,-5.0355,-5.0347,-5.039,-5.0331,-5.0341,-5.0385,-5.0379,-5.0456,-5.0367,-5.0424,-5.0426,-5.0424,-5.0615,-5.0652,-5.0792,-5.0549,-5.0552,-5.0554,0,-5.0266,-5.0294,-5.0405,-5.041,-5.0428,-5.0477,-5.0507,-5.0544,-5.0558,-5.0549,-5.0569,-5.0535,-5.0596,-5.0523,-5.0607,-5.0548,-5.0569,-5.0569,-5.0574,-5.0579,-5.0499,-5.0627,-5.0835,-5.0857,-5.0583,-5.0581,-5.0579,0,-5.0407,-5.0471,-5.0546,-5.0558,-5.0565,-5.0601,-5.0606,-5.0616,-5.0639,-5.0665,-5.068,-5.0713,-5.0732,-5.0759,-5.0735,-5.0684,-5.0823,-5.0748,-5.0819,-5.082,-5.0852,-5.0851,-5.1068,-5.0863,-5.0863,-5.0862,-5.0862,0,-5.0571,-5.0641,-5.0609,-5.0656,-5.0733,-5.07,-5.0777,-5.0775,-5.0785,-5.083,-5.0783,-5.0826,-5.0791,-5.0832,-5.0813,-5.0887,-5.0895,-5.089,-5.0885,-5.0896,-5.0897,-5.091,-5.0901,-5.0868,-5.0867,-5.0866,-5.0865,0,-5.0742,-5.0723,-5.0801,-5.0802,-5.0804,-5.0861,-5.0862,-5.0905,-5.0894,-5.0952,-5.0964,-5.0947,-5.0992,-5.0971,-5.1018,-5.1005,-5.1101,-5.1081,-5.1097,-5.1092,-5.1165,-5.1159,-5.14,-5.1431,-5.1205,-5.1207,-5.1209,0,-5.0848,-5.0901,-5.0908,-5.0936,-5.0944,-5.0988,-5.1012,-5.0981,-5.1008,-5.1028,-5.1069,-5.111,-5.1142,-5.1217,-5.1209,-5.1245,-5.1228,-5.131,-5.1233,-5.1242,-5.1231,-5.1229,-5.1235,-5.1326,-5.1328,-5.133,-5.1332,0,-5.104,-5.1029,-5.1065,-5.1099,-5.1129,-5.1154,-5.1175,-5.12,-5.1169,-5.1202,-5.1248,-5.1273,-5.1321,-5.1363,-5.1395,-5.14,-5.1362,-5.1356,-5.1375,-5.1387,-5.1395,-5.1394,-5.1141,-5.1351,-5.1349,-5.1348,-5.1347,-5.1346,-5.1183,-5.1229,-5.1241,-5.1284,-5.1296,-5.1317,-5.1358,-5.1353,-5.1391,-5.1428,-5.1407,-5.1462,-5.1475,-5.1514,-5.1524,-5.1566,-5.1534,-5.156,-5.1567,-5.1575,-5.1585,-5.1387,-5.1571,-5.1571,-5.157,-5.157,-5.1569,0,-5.1375,-5.138,-5.1419,-5.1451,-5.1485,-5.1445,-5.1466,-5.1497,-5.1546,-5.1562,-5.1594,-5.1648,-5.1688,-5.1684,-5.1722,-5.1757,-5.174,-5.1768,-5.1766,-5.1768,-5.1611,-5.1592,-5.178,-5.178,-5.178,-5.178,-5.178,-5.178,-5.1478,-5.1553,-5.1543,-5.1624,-5.1628,-5.1682,-5.1698,-5.1717,-5.1729,-5.1792,-5.1826,-5.1822,-5.1831,-5.1868,-5.1904,-5.1902,-5.1919,-5.1953,-5.1945,-5.1799,-5.1778,-5.1759,-5.1741,-5.1957,-5.1957,-5.2098,-5.2099,-5.21]},{"header":{"parameterUnit":"m.s-1","parameterCategory":1,"la1":30.2991,"la2":30.254,"lo1":-89.0895,"lo2":-89.0444,"dy":0.0017,"dx":0.0017,"nx":28,"ny":28,"refTime":"2023-09-30T03:00:00:Z","depth":0,"parameterNumber":3,"parameterNumberName":"V-component_of_WINDS"},"data":[0,0,0,0,0,0,0,0,0,0,0,0,0,0,0,0,0,0,0,0,0,0,0,0,0,0,0,0,0,0,0,0,0,0,0,0,0,0,0,0,0,0,0,0,0,0,0,0,0,0,0,0,0,0,0,0,0,0,-2.597,-2.597,0,-2.5962,-2.5962,-2.5962,-2.5905,-2.5903,-2.5902,-2.5901,-2.5894,-2.5895,-2.5896,0,0,0,0,0,0,0,0,0,0,0,0,0,-2.5936,-2.5937,-2.597,-2.597,-2.597,-2.5962,-2.5962,-2.5962,-2.5905,-2.5903,-2.5902,-2.59,-2.5894,-2.5895,-2.5896,0,0,0,0,0,0,0,0,0,0,0,0,0,-2.5942,-2.5937,-2.597,-2.594,-2.5938,-2.5962,-2.5962,-2.5962,-2.5905,-2.5903,-2.5901,-2.5899,-2.5893,-2.5895,-2.5896,-2.5949,0,0,-2.5902,-2.5902,0,0,0,0,0,0,0,0,-2.5942,-2.5943,-2.5945,-2.5942,-2.5939,-2.5932,-2.5947,-2.5957,-2.5906,-2.5918,-2.5901,-2.5898,-2.5908,-2.5909,-2.5912,-2.5949,-2.5948,-2.5902,-2.5903,-2.5903,-2.5904,0,0,0,0,0,0,0,-2.5941,-2.5943,-2.5967,-2.5945,-2.5942,-2.5928,-2.5926,-2.5949,-2.5925,-2.5916,-2.5912,-2.5912,-2.5907,-2.591,-2.5911,-2.5948,-2.5902,-2.5903,-2.5904,-2.5905,-2.6027,-2.6029,0,0,0,0,0,0,-2.5945,-2.5943,-2.5967,-2.5966,-2.5935,-2.593,-2.5928,-2.5937,-2.5924,-2.5921,-2.5914,-2.5909,-2.5909,-2.5909,-2.5911,-2.5971,-2.5903,-2.5905,-2.5906,-2.6025,-2.6027,-2.603,0,0,0,0,0,0,-2.5944,-2.5947,-2.5967,-2.5954,-2.5955,-2.5933,-2.5943,-2.5938,-2.5941,-2.5923,-2.5918,-2.5922,-2.5907,-2.5908,-2.594,-2.597,-2.5906,-2.5907,-2.6022,-2.6025,-2.6029,-2.6093,0,0,0,0,0,0,-2.5944,-2.5948,-2.5967,-2.5954,-2.5956,-2.5996,-2.5944,-2.5939,-2.5944,-2.5938,-2.5929,-2.5926,-2.5905,-2.5937,-2.5941,-2.5971,-2.5909,-2.6019,-2.6024,-2.6028,-2.6088,-2.6098,-2.6106,0,0,0,0,0,-2.5943,-2.5986,-2.5969,-2.5972,-2.598,-2.5998,-2.5999,-2.5974,-2.5947,-2.5967,-2.5954,-2.5926,-2.5966,-2.5941,-2.5945,-2.5976,-2.6017,-2.6022,-2.6027,-2.6084,-2.6096,-2.6106,0,0,0,0,0,0,-2.6004,-2.5984,-2.5964,-2.6005,-2.6004,-2.5988,-2.6013,-2.5988,-2.5995,-2.5989,-2.5959,-2.5957,-2.5993,-2.5987,-2.596,-2.6026,-2.5987,-2.5993,-2.6028,-2.604,-2.6049,-2.605,-2.591,0,0,0,0,0,-2.6022,-2.6038,-2.602,-2.6058,-2.6058,-2.6036,-2.6042,-2.6023,-2.6021,-2.602,-2.601,-2.6009,-2.6021,-2.603,-2.604,-2.6086,-2.6084,-2.611,-2.6119,-2.6127,-2.6132,-2.6156,-2.6167,-2.6046,-2.6046,-2.6046,0,0,-2.606,-2.6051,-2.6063,-2.607,-2.6066,-2.6084,-2.6035,-2.6056,-2.6068,-2.6023,-2.6052,-2.6045,-2.6041,-2.608,-2.6097,-2.6077,-2.6165,-2.6133,-2.6139,-2.6141,-2.6162,-2.6174,-2.6184,-2.605,-2.6049,-2.6048,0,0,-2.6139,-2.6133,-2.6164,-2.6161,-2.6156,-2.6141,-2.6148,-2.6136,-2.613,-2.6158,-2.6124,-2.6138,-2.616,-2.6159,-2.6162,-2.6238,-2.6212,-2.6242,-2.6291,-2.6314,-2.6324,-2.6332,-2.636,-2.637,-2.6248,-2.6248,-2.6248,0,-2.6187,-2.6211,-2.6183,-2.6205,-2.6209,-2.6168,-2.6198,-2.6197,-2.6197,-2.62,-2.6177,-2.6203,-2.6198,-2.6236,-2.6255,-2.6258,-2.6265,-2.6243,-2.6325,-2.6333,-2.634,-2.6366,-2.6376,-2.6252,-2.6251,-2.6251,-2.6251,0,-2.627,-2.6288,-2.6313,-2.6312,-2.6319,-2.6345,-2.6321,-2.6331,-2.6311,-2.6298,-2.6327,-2.6319,-2.6327,-2.6334,-2.6316,-2.6369,-2.6357,-2.633,-2.629,-2.6356,-2.638,-2.6389,-2.6257,-2.6256,-2.6255,-2.6254,0,0,-2.6388,-2.637,-2.638,-2.6379,-2.637,-2.6383,-2.6408,-2.6414,-2.6423,-2.6424,-2.6444,-2.6462,-2.6437,-2.644,-2.642,-2.6441,-2.6502,-2.6411,-2.6411,-2.6429,-2.656,-2.6581,-2.6593,-2.6484,-2.6486,-2.6487,-2.6561,0,-2.6463,-2.6504,-2.6478,-2.6523,-2.6538,-2.6499,-2.652,-2.6517,-2.6505,-2.6517,-2.6504,-2.6518,-2.6483,-2.6485,-2.6503,-2.6491,-2.6528,-2.6485,-2.6503,-2.6504,-2.6505,-2.6605,-2.6627,-2.6697,-2.657,-2.6571,-2.6572,0,-2.6557,-2.656,-2.6606,-2.6593,-2.6598,-2.6618,-2.6622,-2.6633,-2.6629,-2.6619,-2.6621,-2.6596,-2.6619,-2.658,-2.6611,-2.6582,-2.6588,-2.6583,-2.6585,-2.6586,-2.6542,-2.6609,-2.6718,-2.6729,-2.6587,-2.6585,-2.6584,0,-2.6638,-2.6654,-2.6683,-2.6684,-2.6669,-2.6684,-2.6679,-2.6672,-2.6677,-2.6681,-2.6684,-2.669,-2.6694,-2.6699,-2.6677,-2.665,-2.6712,-2.667,-2.6704,-2.6705,-2.6719,-2.6719,-2.6831,-2.6723,-2.6723,-2.6722,-2.6722,0,-2.6725,-2.6754,-2.672,-2.6738,-2.6769,-2.674,-2.6772,-2.6763,-2.6757,-2.6773,-2.6739,-2.6755,-2.6724,-2.6736,-2.6719,-2.6747,-2.6749,-2.6742,-2.6737,-2.6745,-2.6746,-2.6749,-2.6744,-2.6725,-2.6724,-2.6724,-2.6723,0,-2.6821,-2.6799,-2.6829,-2.6812,-2.6808,-2.6833,-2.6819,-2.6835,-2.682,-2.684,-2.6843,-2.6821,-2.6834,-2.6812,-2.6822,-2.681,-2.685,-2.6838,-2.6852,-2.6848,-2.6884,-2.6881,-2.7002,-2.7016,-2.6899,-2.69,-2.6901,0,-2.6878,-2.69,-2.6885,-2.6893,-2.6889,-2.6902,-2.6907,-2.6879,-2.6885,-2.6881,-2.6898,-2.6908,-2.6914,-2.6936,-2.6921,-2.6929,-2.6916,-2.6958,-2.6917,-2.6925,-2.6917,-2.6916,-2.6918,-2.6967,-2.6968,-2.697,-2.6971,0,-2.6982,-2.6969,-2.6978,-2.6982,-2.6989,-2.6991,-2.6991,-2.6999,-2.6969,-2.6978,-2.699,-2.6995,-2.7005,-2.7015,-2.7018,-2.7013,-2.6987,-2.6983,-2.6992,-2.7,-2.7008,-2.7004,-2.6875,-2.6981,-2.698,-2.6979,-2.6979,-2.6978,-2.706,-2.7078,-2.707,-2.708,-2.7076,-2.7076,-2.709,-2.7077,-2.7086,-2.7092,-2.7074,-2.7091,-2.7085,-2.7087,-2.7085,-2.7097,-2.7078,-2.7091,-2.7094,-2.7097,-2.7103,-2.7005,-2.7098,-2.7097,-2.7097,-2.7097,-2.7096,0,-2.7162,-2.7155,-2.7164,-2.7164,-2.7172,-2.7145,-2.7144,-2.7152,-2.7166,-2.7163,-2.7169,-2.7183,-2.7193,-2.7178,-2.7185,-2.7198,-2.7186,-2.7201,-2.72,-2.7199,-2.7119,-2.7111,-2.721,-2.721,-2.721,-2.721,-2.721,-2.721,-2.7216,-2.7243,-2.723,-2.7255,-2.7247,-2.7262,-2.7263,-2.7263,-2.726,-2.7277,-2.7284,-2.7274,-2.7266,-2.7272,-2.728,-2.7275,-2.7279,-2.7298,-2.729,-2.7216,-2.7204,-2.7194,-2.7186,-2.7299,-2.73,-2.7368,-2.7369,-2.7369]}]]